N461VZ K3M7-KJWN

Flight info

Callsign N461VZ
Flight time 0h 53m
Altitude 3000
Route DCT
Aircraft C172/L-SDFGR/1200

Departure

Time 2026-04-25 19:23
Airport Lafayette Municipal Airport (K3M7)

Arrival

Time 2026-04-25 20:16
Airport John C Tune Airport (KJWN)
Time Latitude Longitude Altitude Speed Heading
2026-04-25 19:00 36.51701 -86.05964 957 ft 0 kts 227°
2026-04-25 19:15 36.51681 -86.05981 957 ft 8 kts 206°
2026-04-25 19:15 36.51630 -86.05936 956 ft 9 kts 96°
2026-04-25 19:15 36.51629 -86.05898 955 ft 9 kts 105°
2026-04-25 19:15 36.51535 -86.05867 953 ft 21 kts 184°
2026-04-25 19:16 36.51396 -86.05894 953 ft 17 kts 191°
2026-04-25 19:16 36.51317 -86.05934 953 ft 2 kts 167°
2026-04-25 19:16 36.51317 -86.05931 952 ft 0 kts 24°
2026-04-25 19:19 36.51310 -86.05924 952 ft 6 kts 138°
2026-04-25 19:19 36.51349 -86.05898 953 ft 19 kts
2026-04-25 19:19 36.51673 -86.05857 955 ft 67 kts
2026-04-25 19:19 36.51832 -86.05836 972 ft 74 kts
2026-04-25 19:20 36.52717 -86.05711 1255 ft 78 kts
2026-04-25 19:20 36.53171 -86.06046 1370 ft 98 kts 288°
2026-04-25 19:20 36.52915 -86.06836 1462 ft 108 kts 207°
2026-04-25 19:20 36.52220 -86.06898 1424 ft 96 kts 174°
2026-04-25 19:21 36.51528 -86.06885 1307 ft 100 kts 175°
2026-04-25 19:21 36.50581 -86.06243 1191 ft 76 kts 69°
2026-04-25 19:21 36.50985 -86.05956 1055 ft 76 kts
2026-04-25 19:22 36.51460 -86.05886 967 ft 63 kts 10°
2026-04-25 19:22 36.51826 -86.05826 954 ft 44 kts
2026-04-25 19:22 36.52635 -86.05724 1142 ft 65 kts
2026-04-25 19:23 36.53073 -86.05702 1278 ft 70 kts
2026-04-25 19:23 36.53755 -86.06433 1630 ft 89 kts 270°
2026-04-25 19:23 36.53322 -86.06957 1679 ft 101 kts 172°
2026-04-25 19:24 36.52640 -86.06938 1709 ft 97 kts 178°
2026-04-25 19:24 36.51967 -86.06977 1707 ft 97 kts 175°
2026-04-25 19:24 36.50686 -86.06879 1727 ft 84 kts 168°
2026-04-25 19:25 36.49525 -86.06789 1632 ft 83 kts 167°
2026-04-25 19:25 36.49273 -86.06291 1560 ft 63 kts 72°
2026-04-25 19:25 36.49667 -86.06126 1435 ft 67 kts
2026-04-25 19:26 36.50089 -86.06078 1372 ft 59 kts
2026-04-25 19:26 36.50512 -86.06013 1238 ft 61 kts 12°
2026-04-25 19:26 36.50945 -86.05947 1080 ft 65 kts
2026-04-25 19:26 36.51386 -86.05891 961 ft 60 kts
2026-04-25 19:27 36.51751 -86.05842 955 ft 45 kts
2026-04-25 19:27 36.51849 -86.05827 954 ft 39 kts
2026-04-25 19:27 36.52476 -86.05751 985 ft 77 kts
2026-04-25 19:27 36.53040 -86.05758 1135 ft 80 kts
2026-04-25 19:28 36.53505 -86.05979 1321 ft 88 kts 295°
2026-04-25 19:28 36.53387 -86.06699 1505 ft 97 kts 213°
2026-04-25 19:28 36.52733 -86.06770 1600 ft 101 kts 176°
2026-04-25 19:28 36.51996 -86.06762 1543 ft 100 kts 161°
2026-04-25 19:29 36.51326 -86.06538 1477 ft 101 kts 159°
2026-04-25 19:29 36.50671 -86.06286 1470 ft 95 kts 152°
2026-04-25 19:29 36.50136 -86.05895 1350 ft 88 kts 99°
2026-04-25 19:29 36.50370 -86.05412 1349 ft 70 kts 350°
2026-04-25 19:30 36.50796 -86.05830 1224 ft 76 kts 333°
2026-04-25 19:30 36.51266 -86.05916 1029 ft 61 kts 13°
2026-04-25 19:30 36.51646 -86.05860 955 ft 47 kts
2026-04-25 19:30 36.51890 -86.05823 954 ft 13 kts
2026-04-25 19:31 36.51896 -86.05823 954 ft 0 kts
2026-04-25 19:32 36.51909 -86.05821 954 ft 13 kts
2026-04-25 19:33 36.52502 -86.05741 1046 ft 69 kts
2026-04-25 19:33 36.52983 -86.05705 1246 ft 70 kts 357°
2026-04-25 19:33 36.53201 -86.06249 1433 ft 83 kts 276°
2026-04-25 19:33 36.52826 -86.06770 1579 ft 90 kts 177°
2026-04-25 19:34 36.52172 -86.06831 1594 ft 100 kts 179°
2026-04-25 19:34 36.51503 -86.06854 1631 ft 94 kts 172°
2026-04-25 19:34 36.50857 -86.06853 1671 ft 86 kts 175°
2026-04-25 19:34 36.50272 -86.06858 1622 ft 83 kts 173°
2026-04-25 19:35 36.49844 -86.06554 1522 ft 69 kts 90°
2026-04-25 19:35 36.50046 -86.06141 1389 ft 65 kts 18°
2026-04-25 19:35 36.50498 -86.06016 1218 ft 65 kts 12°
2026-04-25 19:35 36.50937 -86.05954 1093 ft 60 kts
2026-04-25 19:36 36.51335 -86.05898 976 ft 53 kts 10°
2026-04-25 19:36 36.51616 -86.05859 954 ft 8 kts
2026-04-25 19:36 36.51618 -86.05859 954 ft 0 kts
2026-04-25 19:37 36.51619 -86.05859 954 ft 2 kts
2026-04-25 19:37 36.51801 -86.05833 955 ft 50 kts
2026-04-25 19:38 36.52206 -86.05789 1028 ft 68 kts
2026-04-25 19:38 36.52679 -86.05745 1232 ft 69 kts
2026-04-25 19:38 36.53157 -86.05785 1430 ft 71 kts 340°
2026-04-25 19:38 36.53494 -86.06289 1608 ft 83 kts 291°
2026-04-25 19:39 36.53568 -86.07020 1777 ft 89 kts 275°
2026-04-25 19:39 36.53550 -86.07810 1930 ft 93 kts 272°
2026-04-25 19:39 36.53517 -86.08623 2083 ft 95 kts 274°
2026-04-25 19:39 36.53337 -86.09442 2255 ft 100 kts 248°
2026-04-25 19:40 36.53014 -86.10232 2421 ft 102 kts 243°
2026-04-25 19:40 36.52652 -86.11008 2586 ft 103 kts 242°
2026-04-25 19:40 36.52293 -86.11781 2747 ft 104 kts 245°
2026-04-25 19:40 36.51920 -86.12555 2919 ft 104 kts 240°
2026-04-25 19:41 36.51529 -86.13317 3081 ft 105 kts 238°
2026-04-25 19:41 36.51129 -86.14092 3240 ft 106 kts 239°
2026-04-25 19:41 36.50709 -86.14915 3180 ft 118 kts 240°
2026-04-25 19:41 36.50561 -86.15205 3146 ft 119 kts 240°
2026-04-25 19:42 36.49818 -86.16662 2970 ft 119 kts 241°
2026-04-25 19:42 36.49372 -86.17533 2859 ft 119 kts 240°
2026-04-25 19:42 36.48932 -86.18395 2756 ft 119 kts 240°
2026-04-25 19:42 36.48496 -86.19273 2650 ft 119 kts 241°
2026-04-25 19:43 36.48055 -86.20136 2548 ft 118 kts 240°
2026-04-25 19:43 36.47613 -86.20993 2434 ft 117 kts 239°
2026-04-25 19:43 36.47190 -86.21809 2436 ft 105 kts 240°
2026-04-25 19:43 36.46797 -86.22549 2527 ft 102 kts 240°
2026-04-25 19:44 36.46401 -86.23288 2726 ft 100 kts 238°
2026-04-25 19:44 36.46026 -86.23998 2927 ft 96 kts 238°
2026-04-25 19:44 36.45643 -86.24722 2977 ft 109 kts 239°
2026-04-25 19:44 36.45219 -86.25537 3001 ft 114 kts 241°
2026-04-25 19:45 36.44793 -86.26343 2982 ft 108 kts 240°
2026-04-25 19:45 36.44366 -86.27173 2969 ft 104 kts 241°
2026-04-25 19:45 36.43940 -86.27972 2961 ft 102 kts 240°
2026-04-25 19:45 36.43527 -86.28760 2959 ft 100 kts 240°
2026-04-25 19:46 36.43147 -86.29489 2953 ft 99 kts 240°
2026-04-25 19:46 36.42773 -86.30206 2951 ft 98 kts 240°
2026-04-25 19:46 36.42401 -86.30917 2948 ft 98 kts 240°
2026-04-25 19:46 36.42027 -86.31624 2942 ft 98 kts 240°
2026-04-25 19:47 36.41653 -86.32323 2937 ft 97 kts 240°
2026-04-25 19:47 36.41258 -86.33073 2936 ft 97 kts 240°
2026-04-25 19:47 36.40848 -86.33845 2936 ft 96 kts 240°
2026-04-25 19:47 36.40476 -86.34544 2928 ft 97 kts 240°
2026-04-25 19:48 36.40103 -86.35246 2927 ft 99 kts 240°
2026-04-25 19:48 36.39719 -86.35964 2933 ft 100 kts 240°
2026-04-25 19:48 36.39335 -86.36697 2929 ft 102 kts 240°
2026-04-25 19:48 36.38955 -86.37429 2949 ft 102 kts 240°
2026-04-25 19:49 36.38567 -86.38177 2974 ft 102 kts 241°
2026-04-25 19:49 36.38441 -86.38417 2981 ft 102 kts 240°
2026-04-25 19:49 36.37788 -86.39661 3011 ft 103 kts 240°
2026-04-25 19:49 36.37395 -86.40402 3032 ft 102 kts 240°
2026-04-25 19:50 36.36615 -86.41885 3066 ft 102 kts 240°
2026-04-25 19:50 36.36225 -86.42627 3083 ft 103 kts 240°
2026-04-25 19:50 36.35828 -86.43382 3079 ft 105 kts 240°
2026-04-25 19:51 36.35435 -86.44138 3084 ft 105 kts 242°
2026-04-25 19:51 36.35077 -86.44933 3081 ft 105 kts 245°
2026-04-25 19:51 36.34727 -86.45733 3081 ft 105 kts 245°
2026-04-25 19:51 36.34383 -86.46530 3085 ft 105 kts 248°
2026-04-25 19:52 36.34175 -86.47425 3082 ft 103 kts 263°
2026-04-25 19:52 36.34032 -86.48392 3085 ft 103 kts 265°
2026-04-25 19:52 36.33905 -86.49261 3085 ft 104 kts 265°
2026-04-25 19:52 36.33888 -86.50134 3083 ft 100 kts 286°
2026-04-25 19:53 36.34025 -86.50974 3085 ft 99 kts 289°
2026-04-25 19:53 36.34177 -86.51815 3086 ft 99 kts 289°
2026-04-25 19:53 36.34325 -86.52656 3086 ft 99 kts 289°
2026-04-25 19:53 36.34477 -86.53495 3086 ft 100 kts 289°
2026-04-25 19:54 36.34627 -86.54340 3090 ft 100 kts 289°
2026-04-25 19:54 36.34782 -86.55184 3087 ft 100 kts 290°
2026-04-25 19:54 36.34934 -86.56030 3088 ft 100 kts 289°
2026-04-25 19:54 36.34985 -86.56310 3088 ft 100 kts 289°
2026-04-25 19:55 36.35240 -86.57715 3088 ft 100 kts 289°
2026-04-25 19:55 36.35396 -86.58555 3089 ft 100 kts 289°
2026-04-25 19:55 36.35547 -86.59402 3089 ft 100 kts 289°
2026-04-25 19:55 36.35700 -86.60253 3090 ft 99 kts 289°
2026-04-25 19:56 36.35860 -86.61131 3088 ft 99 kts 290°
2026-04-25 19:56 36.36009 -86.61968 3086 ft 99 kts 289°
2026-04-25 19:56 36.36162 -86.62798 3089 ft 98 kts 289°
2026-04-25 19:56 36.36315 -86.63639 3090 ft 99 kts 289°
2026-04-25 19:57 36.36464 -86.64469 3091 ft 99 kts 289°
2026-04-25 19:57 36.36612 -86.65301 3085 ft 99 kts 289°
2026-04-25 19:57 36.36767 -86.66177 3085 ft 99 kts 289°
2026-04-25 19:57 36.36923 -86.67058 3086 ft 99 kts 288°
2026-04-25 19:58 36.37069 -86.67890 3084 ft 99 kts 288°
2026-04-25 19:58 36.37216 -86.68722 3081 ft 99 kts 289°
2026-04-25 19:58 36.37363 -86.69565 3078 ft 98 kts 289°
2026-04-25 19:58 36.37509 -86.70388 3081 ft 98 kts 288°
2026-04-25 19:59 36.37650 -86.71207 3077 ft 98 kts 288°
2026-04-25 19:59 36.37796 -86.72025 3073 ft 97 kts 290°
2026-04-25 19:59 36.37858 -86.72866 3076 ft 97 kts 283°
2026-04-25 19:59 36.37780 -86.73702 3077 ft 102 kts 249°
2026-04-25 20:00 36.37536 -86.74530 3073 ft 102 kts 259°
2026-04-25 20:00 36.37472 -86.74809 3072 ft 102 kts 259°
2026-04-25 20:00 36.37155 -86.76203 3054 ft 100 kts 261°
2026-04-25 20:00 36.36984 -86.77071 3006 ft 102 kts 261°
2026-04-25 20:01 36.36570 -86.78751 2971 ft 101 kts 259°
2026-04-25 20:01 36.36420 -86.79589 2939 ft 101 kts 264°
2026-04-25 20:01 36.36353 -86.80450 2913 ft 98 kts 272°
2026-04-25 20:02 36.36326 -86.81284 2893 ft 98 kts 276°
2026-04-25 20:02 36.36346 -86.82111 2917 ft 93 kts 288°
2026-04-25 20:02 36.36669 -86.82742 2932 ft 83 kts 329°
2026-04-25 20:02 36.37168 -86.83070 2968 ft 81 kts 357°
2026-04-25 20:03 36.37666 -86.82804 2999 ft 81 kts 45°
2026-04-25 20:03 36.38055 -86.82324 3060 ft 79 kts 39°
2026-04-25 20:03 36.38474 -86.81867 3091 ft 80 kts 39°
2026-04-25 20:03 36.38998 -86.81611 3087 ft 83 kts 10°
2026-04-25 20:04 36.39571 -86.81513 3094 ft 82 kts 14°
2026-04-25 20:04 36.40142 -86.81367 3054 ft 86 kts
2026-04-25 20:04 36.40740 -86.81362 3022 ft 88 kts 352°
2026-04-25 20:04 36.41266 -86.81780 2977 ft 94 kts 313°
2026-04-25 20:05 36.41434 -86.82600 2911 ft 104 kts 271°
2026-04-25 20:05 36.41141 -86.83417 2905 ft 107 kts 228°
2026-04-25 20:05 36.40470 -86.83760 2851 ft 107 kts 174°
2026-04-25 20:05 36.39817 -86.83396 2818 ft 100 kts 137°
2026-04-25 20:06 36.39280 -86.82867 2808 ft 96 kts 133°
2026-04-25 20:06 36.38727 -86.82398 2783 ft 101 kts 156°
2026-04-25 20:06 36.38023 -86.82355 2751 ft 103 kts 174°
2026-04-25 20:06 36.37289 -86.82287 2699 ft 105 kts 174°
2026-04-25 20:07 36.36559 -86.82434 2673 ft 107 kts 196°
2026-04-25 20:07 36.35874 -86.82702 2689 ft 104 kts 196°
2026-04-25 20:07 36.35166 -86.82945 2688 ft 104 kts 191°
2026-04-25 20:07 36.34426 -86.83146 2715 ft 103 kts 189°
2026-04-25 20:08 36.33673 -86.83320 2713 ft 104 kts 187°
2026-04-25 20:08 36.32963 -86.83581 2656 ft 109 kts 194°
2026-04-25 20:08 36.32227 -86.83835 2623 ft 109 kts 193°
2026-04-25 20:08 36.31533 -86.84032 2644 ft 98 kts 188°
2026-04-25 20:09 36.30848 -86.84162 2619 ft 97 kts 184°
2026-04-25 20:09 36.30170 -86.84315 2538 ft 102 kts 195°
2026-04-25 20:09 36.29517 -86.84602 2519 ft 98 kts 201°
2026-04-25 20:09 36.28880 -86.84905 2514 ft 98 kts 200°
2026-04-25 20:10 36.28210 -86.85158 2449 ft 104 kts 193°
2026-04-25 20:10 36.27527 -86.85498 2333 ft 105 kts 208°
2026-04-25 20:10 36.26873 -86.85905 2189 ft 101 kts 200°
2026-04-25 20:10 36.26217 -86.86119 2096 ft 97 kts 192°
2026-04-25 20:11 36.25548 -86.86320 1993 ft 98 kts 193°
2026-04-25 20:11 36.24889 -86.86553 1888 ft 100 kts 192°
2026-04-25 20:11 36.24227 -86.86779 1759 ft 101 kts 196°
2026-04-25 20:11 36.23521 -86.86985 1575 ft 105 kts 187°
2026-04-25 20:12 36.22817 -86.87210 1450 ft 103 kts 190°
2026-04-25 20:12 36.22130 -86.87399 1347 ft 93 kts 196°
2026-04-25 20:12 36.21524 -86.87603 1262 ft 88 kts 194°
2026-04-25 20:12 36.21328 -86.87669 1222 ft 88 kts 196°
2026-04-25 20:13 36.20316 -86.87989 947 ft 92 kts 192°
2026-04-25 20:13 36.19760 -86.88319 850 ft 83 kts 217°
2026-04-25 20:13 36.19270 -86.88650 822 ft 79 kts 194°
2026-04-25 20:13 36.18769 -86.88901 848 ft 77 kts 204°
2026-04-25 20:14 36.18276 -86.89178 926 ft 78 kts 202°
2026-04-25 20:14 36.17791 -86.89476 981 ft 78 kts 208°
2026-04-25 20:14 36.17277 -86.89771 980 ft 83 kts 202°
2026-04-25 20:14 36.16769 -86.90089 1022 ft 82 kts 204°
2026-04-25 20:15 36.16243 -86.90383 1058 ft 82 kts 198°
2026-04-25 20:15 36.15865 -86.90031 1050 ft 71 kts 94°
2026-04-25 20:15 36.15915 -86.89452 970 ft 72 kts 42°
2026-04-25 20:15 36.16381 -86.89268 786 ft 69 kts 12°
2026-04-25 20:16 36.16839 -86.89126 637 ft 67 kts 13°
2026-04-25 20:16 36.17282 -86.88983 501 ft 64 kts 10°
2026-04-25 20:16 36.17692 -86.88851 452 ft 55 kts 12°
2026-04-25 20:16 36.18005 -86.88751 458 ft 36 kts 22°
2026-04-25 20:17 36.18126 -86.88704 465 ft 0 kts 23°
2026-04-25 20:17 36.18198 -86.88681 469 ft 25 kts 13°
2026-04-25 20:17 36.18357 -86.88631 476 ft 18 kts 15°
2026-04-25 20:17 36.18388 -86.88541 479 ft 10 kts 103°
2026-04-25 20:18 36.18377 -86.88516 479 ft 0 kts 142°
2026-04-25 20:21 36.18391 -86.88480 480 ft 11 kts 14°
2026-04-25 20:21 36.18425 -86.88470 482 ft 0 kts 11°
2026-04-25 20:22 36.18619 -86.88400 485 ft 53 kts 10°
2026-04-25 20:22 36.19078 -86.88273 517 ft 80 kts 17°
2026-04-25 20:23 36.19641 -86.87987 619 ft 90 kts 21°
2026-04-25 20:23 36.20137 -86.88186 766 ft 95 kts 280°
2026-04-25 20:23 36.19733 -86.88833 817 ft 102 kts 217°
2026-04-25 20:23 36.19093 -86.89246 837 ft 105 kts 205°
2026-04-25 20:24 36.18430 -86.89623 853 ft 105 kts 204°
2026-04-25 20:24 36.17760 -86.89980 870 ft 103 kts 206°
2026-04-25 20:24 36.17140 -86.90408 906 ft 102 kts 211°
2026-04-25 20:24 36.16522 -86.90887 922 ft 104 kts 205°
2026-04-25 20:25 36.15885 -86.90726 917 ft 96 kts 117°
2026-04-25 20:25 36.15892 -86.89986 924 ft 88 kts 65°
2026-04-25 20:25 36.16275 -86.89422 776 ft 84 kts 27°
2026-04-25 20:25 36.16784 -86.89172 638 ft 72 kts 19°
2026-04-25 20:26 36.17240 -86.88998 508 ft 67 kts 15°
2026-04-25 20:26 36.17666 -86.88860 449 ft 56 kts 12°
2026-04-25 20:26 36.17920 -86.88771 455 ft 13 kts 52°
2026-04-25 20:26 36.17916 -86.88673 458 ft 12 kts 110°
2026-04-25 20:27 36.17982 -86.88612 461 ft 14 kts 14°
2026-04-25 20:27 36.17994 -86.88522 465 ft 14 kts 127°
2026-04-25 20:27 36.17922 -86.88416 467 ft 13 kts 131°
2026-04-25 20:27 36.17870 -86.88377 468 ft 6 kts 185°
2026-04-25 20:28 36.17857 -86.88369 468 ft 4 kts 43°
2026-04-25 20:28 36.17858 -86.88367 468 ft 0 kts 44°